Location: Biltmore Gardens
(41.6070°N, 83.4666°W)
Time: 14:18:01
(UTC+00:00)

Cosmos 1356 - Pass Details

Date: 14 July 2020
Orbit: 443 x 448 km, 81.1° (Epoch: 04 August)

Event Time Altitude Azimuth Distance (km) Brightness Sun altitude
Exits shadow 08:18:55 43° 201° (SSW) 644 3.7 -16.9°
Maximum altitude 08:19:56 79° 280° (W) 461 3.3 -16.7°
Drops below altitude 10° 08:23:24 10° 7° (N) 1,580 7.0 -16.3°
Sets 08:25:28 0° 9° (N) 2,456 8.2 -16.1°
